Location: Riverside
(39.1734°N, 77.8561°W)
Time: 12:27:01
(UTC+00:00)

JY1SAT - Visible Passes

Search period start: 24 May 2019 00:00
Search period end: 03 June 2019 00:00
Orbit: 570 x 593 km, 97.7° (Epoch: 24 May)

Date Brightness Start Highest point End Pass type
(mag) Time Alt. Az. Time Alt. Az. Time Alt. Az.
24 May ? 01:57:21 14° E 01:58:19 15° ENE 02:00:39 10° NNE visible
24 May ? 03:33:42 39° W 03:33:42 39° W 03:37:10 10° NNW visible
25 May ? 02:02:46 16° E 02:03:41 17° ENE 02:06:20 10° NNE visible
25 May ? 03:39:07 34° W 03:39:07 34° W 03:42:29 10° NNW visible
26 May ? 02:08:11 18° E 02:09:02 19° ENE 02:11:58 10° NNE visible
26 May ? 03:44:33 30° W 03:44:33 30° W 03:47:47 10° NW visible
27 May ? 02:13:36 21° E 02:14:24 22° ENE 02:17:34 10° NNE visible
27 May ? 03:49:58 26° W 03:49:58 26° W 03:53:03 10° NW visible
28 May ? 02:19:01 24° E 02:19:46 25° ENE 02:23:07 10° NNE visible
28 May ? 03:55:23 23° W 03:55:23 23° W 03:58:18 10° NW visible
29 May ? 02:24:26 27° E 02:25:08 29° ENE 02:28:39 10° N visible
29 May ? 04:00:48 20° W 04:00:48 20° W 04:03:30 10° NW visible
30 May ? 02:29:52 31° E 02:30:30 33° ENE 02:34:10 10° N visible
30 May ? 04:06:13 17° W 04:06:13 17° W 04:08:40 10° NW visible
31 May ? 02:35:17 36° E 02:35:53 38° ENE 02:39:40 10° N visible
31 May ? 04:11:38 15° W 04:11:38 15° W 04:13:44 10° WNW visible
01 Jun ? 02:40:42 41° E 02:41:15 44° ENE 02:45:08 10° N visible
01 Jun ? 04:17:04 13° W 04:17:04 13° W 04:18:44 10° WNW visible
02 Jun ? 02:46:07 48° ESE 02:46:38 51° ENE 02:50:36 10° N visible
02 Jun ? 04:22:29 11° W 04:22:29 11° W 04:23:29 10° WNW visible
